Regional Weather Roundup
Issued by NWS Grand Forks, ND

Home | Current Version | Previous Version | Text Only | Print | Product List | Glossary On
Versions: 1 2 3 4 5 6 7 8 9 10 11 12 13 14 15 16 17 18 19 20 21 22 23 24 25 26 27 28 29 30 31 32 33 34 35 36 37 38 39 40 41 42 43 44 45 46 47 48 49 50
000
ASUS43 KFGF 061131
RWRFGF
PRAIRIE TO PINES  WEATHER ROUNDUP
NATIONAL WEATHER SERVICE EASTERN NORTH DAKOTA/GRAND FORKS ND
600 AM CDT FRI MAY 06 2016

 **SATELLITE DATA USED TO AUGMENT SKY COVER AT AUTOMATED STATIONS**
 *****  WEATHER ACROSS EASTERN NORTH DAKOTA  *****

CITY           SKY/WX    TMP DP  RH WIND       PRES   REMARKS
GRAND FORKS    CLOUDY    61  48  62 SW7       29.68R
GRAND FRKS AFB MOCLDY    63  48  59 W8        29.68R
DEVILS LAKE    CLEAR     54  44  69 CALM      29.72S
FARGO          CLEAR     56  40  55 S5        29.74F
WAHPETON ARPT  SUNNY     55  41  58 SE6       29.77S
$$

 ***** WEATHER ACROSS CENTRAL AND WESTERN NORTH DAKOTA  *****

CITY           SKY/WX    TMP DP  RH WIND       PRES   REMARKS
BISMARCK       PTCLDY    50  46  86 N5        29.79R
MINOT          CLOUDY    67  41  38 NW15      29.79R
JAMESTOWN      CLOUDY    52  46  80 S5        29.74S
MINOT AFB      CLOUDY    61  44  54 NW13      29.79R
GARRISON         N/A     56  43  61 N9        29.78R
WILLISTON      MOCLDY    57  42  57 N22G31    29.90R
DICKINSON      MOCLDY    51  42  71 NW8       29.81R
HETTINGER      MOCLDY    49  44  83 CALM      29.85S
$$

 *****  OTHER AIRPORT OBSERVATIONS IN OUR AREA  *****

CITY           SKY/WX    TMP DP  RH WIND       PRES   REMARKS
WALHALLA       FAIR      66  41  39 W9        29.67R
GRAFTON AIRPOR FAIR      63  46  55 SW12      29.67F
VALLEY CITY AR FAIR      54  50  87 S8        29.77R
CANDO          FAIR      55  43  62 W8        29.76R
CAVALIER APRT  FAIR      64  43  45 W12       29.64S
GWINNER        FAIR      55  45  67 SW12      29.77S
SHEYENNE NWR     N/A     57  43  60 SW5       29.95S
ROLLA          FAIR      63  43  48 NW23G31   29.77R
 ***** THE ABOVE OBSERVATIONS ARE NON NWS ARE NOT QUALITY
       CONTROLLED AND MAY MIS-REPORT RAIN FOR SNOW...
$$

  *****  WEATHER ACROSS NORTHERN MINNESOTA  *****

CITY           SKY/WX    TMP DP  RH WIND       PRES   REMARKS
FLAG ISLAND    PTCLDY    61  45  55 S10       29.61F
WARROAD        CLOUDY    63  48  59 SW9G16    29.65F
ROSEAU         CLOUDY    66  46  48 SW7       29.64F
HALLOCK        CLOUDY    59  43  55 SE6       29.65S
THF RVR FALLS  CLOUDY    61  39  44 SW12      29.72S
BAUDETTE       CLOUDY    61  42  49 SW7       29.67S
WASKISH        PTCLDY    66  45  45 SW8       29.72S
CROOKSTON      CLOUDY    57  43  58 S9        29.71S
STEPHEN NDAWN    N/A     57  45  62 SE8         N/A
GREENBUSH NDAW   N/A     61  48  63 S5          N/A
$$
  *****  WEATHER ACROSS CENTRAL AND WEST MINNESOTA  *****

CITY           SKY/WX    TMP DP  RH WIND       PRES   REMARKS
FOSSTON        CLEAR     57  41  54 S10       29.75S
BEMIDJI        CLEAR     62  43  49 SW6       29.75F
PARK RAPIDS    PTCLDY    60  42  51 SW5       29.78F
ELBOW LAKE     FAIR      55  45  68 SE10      29.81S
WADENA         CLEAR     55  43  62 S5        29.80S
DETROIT LAKES  CLEAR     63  43  48 SW9       29.79S
MOORHEAD       CLEAR     55  43  62 SE9       29.77R
FERGUS FALLS   CLEAR     57  45  62 SE9       29.77S
MORRIS MN      CLEAR     54  43  66 SE9       29.81S
STAPLES        CLEAR     59  41  51 S6        29.81S
$$
  *****  WEATHER ELSEWHERE ACROSS MINNESOTA  *****

CITY           SKY/WX    TMP DP  RH WIND       PRES   REMARKS
DULUTH         PTCLDY    66  41  40 W16       29.79S
INTRNTL FALLS  PTCLDY    68  43  40 W9G17     29.69S
ELY            CLEAR     61  39  44 SW6       29.75S
CLOQUET        CLEAR     64  39  39 W9        29.80R
WHEATON        CLEAR     63  46  55 S5        29.79F
BRAINERD       CLEAR     50  44  80 CALM      29.82S
HIBBING        CLEAR     55  40  56 SW5       29.77S
ALEXANDRIA     CLEAR     58  42  55 S10       29.84S
SAINT CLOUD    CLEAR     59  41  51 SW7       29.84S
MINNEAPOLIS    PTCLDY    61  41  47 W9        29.88R
$$

  *****  WEATHER ACROSS SOUTH DAKOTA  *****

CITY           SKY/WX    TMP DP  RH WIND       PRES   REMARKS
SIOUX FALLS    CLOUDY    58  44  60 S9        29.90F
BROOKINGS      CLEAR     53  44  71 S9        29.87F
WATERTOWN      CLEAR     58  45  62 S10       29.83F
HURON          PTCLDY    61  50  67 S15       29.81S
SISSETON         N/A     67  46  47 SW21      29.75F
ABERDEEN       CLEAR     54  46  74 S10       29.77F
MITCHELL       CLEAR     65  49  56 S9        29.86R
PIERRE         PTCLDY    57  48  72 S5        29.80S
MOBRIDGE       CLEAR     49  46  90 CALM      29.77S
RAPID CITY     MOCLDY    49  40  71 N5        29.85S
$$

  *****  SOME WEATHER IN NEARBY STATES *****

CITY           SKY/WX    TMP DP  RH WIND       PRES   REMARKS
GLASGOW MT     MOCLDY    54  41  61 NW16      30.05R
GREAT FALLS MT CLOUDY    47  43  86 N8        30.20R
CHEYENNE WY    CLOUDY    44  38  79 W9        30.01F
SCOTTSBLUFF NE MOCLDY    60  43  53 E3        29.93S
OMAHA NE       PTCLDY    53  44  71 SE9       29.99S
DES MOINES IA  CLEAR     52  41  66 SW6       30.00R
DAVENPORT IA   CLEAR     48  37  65 SW3       30.00R
CHICAGO IL     CLOUDY    49  42  77 W7        29.96S
EAU CLAIRE WI  CLEAR     48  41  76 CALM      29.86R
LA CROSSE WI   PTCLDY    54  45  71 S5        29.90R
$$

  *****  SOME NATIONAL WEATHER *****

CITY           SKY/WX    TMP DP  RH WIND       PRES   REMARKS
LA GUARDIA NY  LGT RAIN  50  49  96 NE15      29.69R
RALEIGH NC     LGT RAIN  50  48  93 NW5       29.70R
ATLANTA GA     PTCLDY    47  41  80 NW9       29.88S
NEW ORLEANS LA PTCLDY    65  45  48 NE9       30.00S
OKLAHOMA CITY  PTCLDY    51  46  83 S5        30.07R
ALBUQUERQUE NM CLEAR     63  25  23 CALM      29.98S
SALT LAKE CITY CLOUDY    70  36  28 E17       29.79R
LOS ANGELES CA MOCLDY    59  54  83 N3        29.83F
BOISE ID       CLOUDY    57  49  74 NW9       29.82S
SEATTLE WA     PTCLDY    55  45  68 N7        30.06S
$$

*** WEATHER ACROSS MANITOBA...SASKATCHEWAN AND ONTARIO ***
                ***ONTARIO***

CITY           SKY/WX    TMP DP  RH WIND       PRES   REMARKS
GERALDTON      PTCLDY    36  32  87 E2        29.76R
THUNDER BAY    CLOUDY    41  37  87 N2        29.75S
SIOUX LOOKOUT  CLOUDY    57  46  67 S7        29.61S
TORONTO        CLEAR     48  39  71 N12G18    29.86R
BIG TROUT LK   CLOUDY    28  19  69 E12G25    29.74F WCI  18
PICKLE LAKE    MOCLDY    46  37  71 SE12      29.60
DRYDEN         CLOUDY    63  41  45 S10       29.62F
KENORA         MOCLDY    63  41  45 S7        29.61F
$$
                *** MANITOBA***

CITY           SKY/WX    TMP DP  RH WIND       PRES   REMARKS
BRANDON        MOCLDY    61  43  51 N25G33    29.78R
DAUPHIN        CLEAR     54  41  62 N12G21    29.87R
ISLAND LAKE    PTCLDY    36  25  64 N7        29.74R
PILOT MOUND      N/A     61  41  48 NW14        N/A
THE PAS        CLOUDY    45  43  93 W6        29.90R
THOMPSON       CLOUDY    28  27  93 NE3       29.86S
WINNIPEG       MOCLDY    57  41  54 NW12      29.63R
LYNN LAKE      PTCLDY    36  34  93 NW10      29.85R
CHURCHILL      LGT SNOW  23  23 100 SE7       29.95F VSB 1   WCI  15
GILLAM         LGT SNOW  25  23  93 E6        29.87F WCI  18
$$
                ***SASKATCHEWAN***

CITY           SKY/WX    TMP DP  RH WIND       PRES   REMARKS
ESTEVAN        PTCLDY    52  41  66 NW13G20   29.91R
KINDERSLEY     PTCLDY    37  34  87 W5        30.15R
LLOYDMINSTER   MOCLDY    39  36  87 W13       30.11R
PRINCE ALBERT  MOCLDY    37  36  93 W6        30.02S
REGINA         PTCLDY    48  41  76 N16       30.01R
YORKTON        CLEAR     50  43  76 NW14G22   29.95R
N. BATTLEFORD  CLEAR     34  34 100 S6        30.10F
LA RONGE       MOCLDY    37  37 100 W5        29.99R
SASKATOON      MOCLDY    37  36  93 W9        30.10R
SWIFT CURRENT  CLOUDY    45  37  76 N12       30.12R
$$
NOTE: THESE ARE AUTOMATED STATIONS WITH LIMITED QUALITY CONTROL
      "FAIR" INDICATES FEW OR NO CLOUDS BELOW 12,000 FEET WITH NO
      SIGNIFICANT WEATHER AND/OR OBSTRUCTIONS TO VISIBILITY.
      SKY/WX - SKY CONDITION AND SIGNIFICANT WEATHER.
      TMP - AIR TEMPERATURE.    DP   - DEWPOINT TEMPERATURE.
      RH  - RELATIVE HUMIDITY.  PRES - PRESSURE.
      HX  - HEAT INDEX.         WCI  - WIND CHILL INDEX.
$




USA.gov is the U.S. government's official web portal to all federal, state and local government web resources and services.